Location: Majestic Skies Ranch
(34.0000°N, 105.9300°W)
Time: 09:00:49
(UTC-06:00)

ISS - Visible Passes

Search period start: 05 July 2015 00:00
Search period end: 15 July 2015 00:00
Orbit: 398 x 403 km, 51.6° (Epoch: 05 July)

Date Brightness Start Highest point End Pass type
(mag) Time Alt. Az. Time Alt. Az. Time Alt. Az.
08 Jul -0.6 05:22:57 10° SSE 05:24:09 12° SE 05:25:29 10° ESE visible
10 Jul -1.9 05:10:19 10° SSW 05:13:11 30° SE 05:16:06 10° ENE visible
11 Jul -0.9 04:18:50 13° SSE 04:19:44 14° SE 04:21:33 10° E visible
12 Jul -3.4 05:00:05 19° SW 05:02:14 88° SSE 05:05:30 10° NE visible
13 Jul -2.3 04:08:40 36° SE 04:08:41 36° SE 04:11:43 10° ENE visible
14 Jul -0.2 03:17:11 11° E 03:17:11 11° E 03:17:20 10° E visible
14 Jul -2.2 04:49:45 21° W 04:51:23 34° NW 04:54:24 10° NNE visible
